Wind_Speed
9 5 5 6 14 11 12 12 10 12 10 8 6 8 12 13 15 18 18 18 20 21 17 16 16 21 26 30 32 34 36 37 43 46 46 41 42 43 46 45 48 46 46 48
8 6 6 7 9 11 13 12 12 14 14 13 14 5 9 12 16 19 22 21 20 21 21 20 20 19 23 27 32 33 36 43 43 39 40 43 43 45 43 44 44 44 44 44
4 7 8 8 14 14 13 14 13 13 9 9 6 6 10 16 18 18 18 24 25 24 23 22 22 19 19 24 26 31 37 41 39 41 41 44 44 40 43 44 41 43 44 44
5 5 4 6 5 3 12 13 11 7 4 4 5 6 10 14 10 15 18 23 26 26 25 24 23 23 23 21 25 30 33 36 37 39 42 40 40 42 42 42 42 41 40 39
5 7 10 5 3 9 7 7 3 2 3 3 6 9 10 12 13 16 18 21 24 27 28 26 24 24 25 25 24 28 32 35 36 38 39 38 39 42 41 39 37 36 33 33
5 11 11 5 3 2 3 7 11 5 4 7 10 6 6 15 15 18 21 22 25 26 25 25 24 23 23 25 26 27 31 35 35 32 35 37 37 35 35 33 34 38 35 36
11 8 6 8 9 0 11 5 10 6 8 11 8 10 13 13 14 16 20 24 25 24 23 24 27 26 23 24 26 27 26 27 29 32 33 33 30 29 38 42 40 36 36 34
13 10 13 8 3 7 8 5 8 8 10 10 12 13 11 11 16 18 21 23 24 25 25 30 31 31 28 22 21 19 23 21 28 31 33 36 41 42 37 36 35 34 32 28
11 9 3 3 8 9 7 7 10 11 11 12 15 16 15 14 17 17 19 20 22 24 26 29 30 27 23 21 25 25 22 25 30 33 31 32 32 33 33 32 30 29 25 22
1 7 9 6 7 7 9 10 11 12 14 14 14 15 14 15 16 17 18 21 24 27 28 30 32 27 22 20 19 19 17 20 23 25 26 25 25 27 29 28 26 25 24 21
8 9 7 7 8 7 10 12 14 15 16 15 16 14 15 15 15 16 17 19 20 25 25 27 25 26 20 14 12 14 15 18 22 23 23 25 25 22 22 22 21 21 22 22
4 10 9 8 9 9 13 14 15 16 16 14 13 14 14 11 13 15 17 19 19 20 20 21 22 20 17 11 5 8 14 17 22 27 24 25 29 29 21 20 20 20 21 18
4 7 8 11 10 10 11 12 12 13 13 14 13 12 11 10 12 13 13 14 16 17 17 17 16 14 14 11 6 6 17 24 28 33 30 31 34 37 40 33 30 27 23 22
8 11 1 10 6 8 9 9 8 7 8 9 10 8 8 8 9 12 14 13 13 14 16 17 19 20 16 19 14 21 24 28 30 31 30 31 27 34 31 29 30 30 25 22
6 7 6 7 4 7 8 9 5 6 6 7 9 9 8 9 11 13 13 16 18 21 23 23 26 24 20 20 22 26 27 32 31 31 30 30 26 29 28 28 28 27 21 18
11 7 3 4 5 7 8 7 5 6 6 7 8 9 11 14 16 17 18 18 22 27 26 26 29 25 23 24 26 27 27 28 27 26 26 25 23 24 23 21 21 20 19 15
9 4 9 6 5 6 7 6 6 5 6 8 11 13 15 17 20 22 23 22 23 24 23 22 22 20 21 22 22 23 23 23 22 22 23 21 20 20 19 17 18 17 16 13
6 5 4 3 4 4 7 8 8 10 11 13 15 15 17 19 20 20 19 19 20 22 23 21 18 18 18 19 18 17 17 17 18 19 19 18 17 17 18 16 16 15 13 12
7 7 7 8 9 10 11 12 13 14 16 17 18 20 20 19 17 16 15 16 18 20 20 18 17 16 16 15 14 14 15 16 17 17 16 15 15 16 15 15 14 12 10 9
10 11 12 13 13 13 16 16 16 18 18 18 18 18 18 17 15 14 14 18 19 17 14 13 14 14 15 14 14 14 15 15 15 14 13 13 13 13 12 13 11 11 10 9
14 16 18 18 20 19 19 18 17 17 15 15 15 15 14 12 10 12 14 15 14 12 11 10 10 13 13 13 14 14 14 14 13 13 12 11 11 10 11 11 10 9 9 7
15 17 19 18 19 19 18 17 16 16 16 16 15 15 14 13 14 14 14 13 11 11 10 11 12 12 12 12 13 12 12 12 12 10 10 10 9 9 9 9 8 7 7 6
17 18 18 18 17 17 15 14 12 11 10 10 11 11 11 11 9 7 9 11 10 10 10 11 11 10 11 12 11 11 11 11 11 9 10 9 8 7 6 6 6 5 4 4
15 15 15 14 13 12 13 11 11 10 10 10 8 9 8 7 9 9 8 9 9 10 10 10 9 9 9 9 10 10 10 9 9 9 8 7 7 7 6 5 5 4 5 6
12 12 11 9 8 8 8 8 8 8 8 8 8 8 8 8 6 5 6 7 8 8 8 7 7 8 9 9 9 9 9 9 8 7 7 6 6 5 5 6 7 8 9 9
8 7 7 8 7 5 5 4 4 4 4 4 5 5 6 6 6 6 7 8 8 8 8 8 9 8 9 9 8 8 7 7 6 7 6 6 6 6 8 9 9 9 10 10
7 7 5 5 5 4 4 4 3 3 3 2 3 3 4 4 6 5 6 6 7 7 7 7 8 8 8 7 7 7 7 7 9 8 9 8 9 9 10 10 10 10 11 11
Wind_Direction
247 323 311 250 191 203 225 232 255 242 246 266 283 282 299 330 331 330 329 335 334 327 321 315 249 239 232 228 223 220 219 218 222 228 226 224 224 227 228 228 227 229 230 233
279 239 256 251 241 239 229 243 242 253 265 277 272 321 306 307 313 317 324 336 335 328 322 317 312 263 247 239 229 223 222 224 226 224 224 225 225 226 226 228 230 227 229 231
265 267 294 262 241 236 237 239 239 244 258 15 345 319 303 299 311 313 325 328 329 326 320 313 306 311 271 253 239 229 229 230 227 225 226 226 225 223 226 228 227 230 230 230
219 199 223 238 54 239 239 247 250 267 305 354 334 307 295 290 350 345 331 328 325 327 327 318 307 299 291 277 253 239 233 231 228 225 225 225 223 224 224 223 225 227 230 232
249 250 272 233 281 235 224 243 139 170 79 30 353 306 268 44 6 342 334 331 327 324 326 327 319 306 290 279 266 249 239 233 229 223 223 222 222 222 222 219 221 224 228 230
205 247 254 277 123 319 253 235 108 60 22 352 349 296 347 357 346 334 333 333 331 329 326 329 329 320 305 283 272 261 247 239 231 225 224 222 222 221 217 215 214 215 218 225
233 246 261 263 155 350 223 105 74 17 2 348 322 325 317 314 321 331 333 333 333 331 331 330 325 325 314 295 278 268 259 247 239 230 223 221 218 218 215 210 211 212 217 223
228 235 241 256 164 245 49 39 27 5 10 347 324 311 308 321 317 327 335 339 338 335 333 331 330 326 324 319 292 265 245 227 223 220 214 211 213 213 213 215 215 215 216 213
194 218 156 118 86 67 29 6 9 6 358 353 347 344 330 319 327 330 335 338 345 341 333 334 333 329 321 298 295 279 262 235 221 217 216 212 212 213 214 208 209 201 200 197
174 198 224 135 83 53 19 4 1 359 350 344 342 338 339 337 336 337 338 339 345 345 341 334 335 332 322 316 295 271 244 232 218 212 215 210 204 196 196 193 193 189 183 181
236 251 270 173 84 37 0 351 348 348 344 340 340 338 338 340 345 345 344 342 345 343 345 340 343 337 324 327 309 256 208 186 174 168 168 172 169 171 176 172 179 175 165 157
256 41 348 51 15 14 2 358 352 348 348 349 350 348 348 354 357 351 350 344 347 349 348 355 352 349 339 342 321 217 168 148 144 142 139 134 131 119 114 127 137 141 132 134
50 352 346 334 13 29 9 358 348 351 356 355 356 360 2 5 4 356 357 357 5 11 11 11 23 21 28 19 21 147 133 129 125 118 121 114 115 113 106 101 103 100 104 106
14 351 3 23 342 348 348 343 346 1 12 14 9 10 19 20 11 18 23 27 37 41 44 46 54 52 55 72 91 94 100 104 98 104 103 105 102 105 108 108 102 94 94 96
1 341 309 307 300 323 325 332 0 22 5 10 5 17 21 40 48 57 65 66 72 73 68 63 68 69 73 85 92 96 94 93 95 99 99 99 110 102 101 101 101 101 96 87
328 317 339 356 352 354 359 5 22 26 28 30 29 44 64 75 79 81 80 79 79 71 70 69 72 74 78 82 81 84 86 87 90 95 98 99 102 100 102 106 105 102 95 88
354 23 360 360 8 10 20 31 51 62 73 81 86 86 81 85 84 80 78 78 79 76 71 67 66 70 70 72 78 75 79 84 90 90 87 87 89 94 98 101 101 105 110 116
29 31 28 32 64 76 69 74 82 91 93 99 108 109 103 95 90 87 85 83 81 75 67 60 59 60 64 63 63 67 69 70 75 79 81 80 81 85 87 88 84 82 77 76
68 72 75 79 86 93 93 91 94 100 104 106 107 100 96 93 90 88 88 83 72 64 54 49 51 53 55 57 58 64 67 66 64 65 69 77 78 76 75 76 79 78 75 73
80 83 86 90 104 102 98 101 103 103 102 104 104 100 95 88 77 72 68 66 57 49 43 44 42 44 46 49 56 57 61 61 63 66 73 66 65 65 69 80 80 74 70 64
88 89 91 92 92 94 97 102 104 100 101 102 99 93 87 83 81 75 52 53 50 44 39 37 40 45 47 46 47 51 55 57 60 62 62 64 64 66 68 68 69 69 65 63
91 95 97 99 97 97 98 101 103 103 99 91 80 70 59 53 40 48 61 56 41 48 47 53 57 55 57 54 55 56 59 63 65 65 65 65 63 61 62 63 63 58 53 44
100 102 103 102 101 99 101 100 98 95 90 82 71 61 61 60 63 60 45 48 47 44 45 50 52 51 50 54 55 56 57 57 56 56 54 53 54 52 48 57 45 35 21 8
102 101 99 95 89 88 85 80 76 70 62 57 72 93 70 47 51 51 47 41 47 43 46 49 49 49 54 49 46 44 46 44 41 43 36 39 36 29 18 6 6 1 331 325
100 94 89 90 87 86 87 83 72 67 66 63 57 50 57 66 77 60 51 38 36 45 32 35 30 29 35 32 35 32 24 17 19 19 13 5 359 353 341 329 320 313 314 312
99 99 95 98 93 88 84 87 84 70 57 56 56 55 56 55 47 41 20 28 26 28 26 18 22 24 18 13 10 4 7 353 352 343 342 338 328 330 316 315 315 313 310 309
88 86 80 73 66 81 98 108 96 72 73 92 90 62 47 37 30 32 26 25 18 18 12 7 358 356 353 354 344 340 338 331 323 315 312 312 313 311 309 311 310 309 308 308
Height
1397 1398 1396 1387 1393 1400 1401 1397 1402 1397 1396 1389 1392 1396 1397 1399 1401 1402 1402 1403 1402 1401 1399 1398 1398 1400 1400 1401 1403 1404 1407 1409 1406 1406 1411 1417 1421 1424 1428 1431 1433 1436 1440 1442
1414 1404 1404 1402 1398 1396 1397 1398 1400 1397 1397 1392 1393 1395 1400 1402 1403 1403 1401 1404 1406 1404 1401 1400 1396 1395 1396 1396 1395 1397 1398 1398 1401 1405 1406 1407 1410 1413 1418 1421 1425 1429 1429 1432
1427 1412 1409 1411 1401 1399 1398 1395 1397 1399 1392 1392 1396 1400 1404 1404 1405 1404 1404 1404 1404 1403 1401 1398 1395 1392 1392 1391 1391 1391 1389 1389 1394 1396 1397 1398 1400 1405 1406 1410 1415 1418 1420 1422
1419 1417 1429 1395 1392 1391 1393 1392 1390 1392 1395 1400 1402 1404 1405 1405 1403 1406 1407 1405 1402 1401 1398 1395 1392 1389 1387 1385 1384 1383 1382 1382 1384 1386 1388 1391 1393 1395 1398 1401 1403 1407 1411 1414
1412 1406 1395 1388 1392 1395 1396 1393 1393 1396 1400 1403 1405 1406 1400 1404 1408 1409 1408 1406 1403 1398 1393 1389 1386 1384 1382 1379 1378 1376 1374 1374 1374 1375 1378 1382 1383 1384 1387 1393 1396 1401 1403 1406
1414 1415 1408 1393 1389 1398 1396 1400 1395 1402 1405 1406 1407 1405 1396 1405 1408 1408 1406 1404 1400 1395 1390 1385 1382 1378 1375 1373 1371 1369 1368 1366 1366 1368 1369 1371 1374 1378 1381 1384 1387 1387 1391 1394
1415 1412 1402 1392 1395 1401 1405 1407 1405 1409 1409 1410 1409 1408 1406 1408 1408 1408 1406 1401 1398 1393 1388 1381 1374 1371 1369 1368 1364 1363 1362 1361 1362 1362 1361 1364 1367 1373 1371 1370 1375 1380 1383 1386
1416 1416 1412 1396 1397 1403 1407 1407 1410 1413 1413 1413 1410 1407 1404 1406 1406 1405 1403 1399 1394 1388 1382 1374 1368 1363 1358 1359 1355 1353 1352 1352 1351 1352 1353 1353 1354 1355 1363 1368 1369 1373 1377 1378
1401 1400 1397 1397 1403 1408 1411 1411 1412 1412 1412 1412 1409 1407 1406 1405 1404 1403 1401 1398 1392 1386 1378 1372 1366 1361 1356 1353 1351 1349 1347 1346 1344 1346 1349 1349 1352 1355 1357 1361 1364 1367 1371 1372
1403 1392 1399 1398 1404 1408 1411 1412 1412 1412 1411 1412 1409 1408 1406 1405 1404 1402 1399 1394 1388 1382 1376 1370 1363 1360 1356 1351 1348 1345 1343 1342 1340 1339 1343 1346 1349 1352 1354 1357 1360 1364 1364 1366
1394 1393 1395 1397 1405 1410 1411 1411 1411 1411 1412 1411 1409 1408 1407 1405 1402 1399 1396 1391 1388 1382 1377 1369 1360 1360 1357 1352 1348 1346 1341 1338 1335 1335 1338 1344 1345 1350 1353 1355 1358 1363 1366 1367
1394 1401 1402 1402 1408 1410 1411 1412 1413 1413 1412 1412 1411 1409 1407 1405 1402 1399 1395 1390 1386 1383 1377 1371 1361 1362 1362 1354 1352 1350 1342 1340 1337 1330 1343 1349 1344 1349 1356 1359 1361 1367 1369 1373
1404 1409 1410 1410 1410 1411 1415 1416 1415 1414 1412 1411 1411 1410 1407 1406 1402 1399 1396 1391 1387 1384 1381 1377 1365 1367 1363 1358 1358 1356 1350 1345 1344 1332 1345 1353 1348 1349 1356 1366 1370 1370 1375 1379
1410 1410 1410 1412 1415 1416 1417 1417 1417 1416 1415 1413 1412 1411 1408 1405 1403 1400 1398 1395 1390 1387 1384 1383 1373 1373 1372 1364 1359 1362 1362 1354 1348 1350 1353 1354 1369 1356 1362 1368 1371 1378 1385 1386
1416 1417 1418 1417 1416 1415 1415 1414 1415 1415 1413 1412 1410 1409 1407 1405 1403 1402 1401 1400 1395 1390 1388 1389 1379 1379 1378 1377 1375 1366 1368 1361 1362 1362 1361 1362 1372 1364 1372 1373 1379 1382 1391 1395
1417 1416 1417 1417 1417 1416 1415 1415 1414 1414 1413 1412 1410 1410 1409 1407 1406 1405 1404 1402 1397 1393 1394 1393 1389 1391 1390 1386 1382 1380 1377 1373 1374 1376 1375 1376 1382 1376 1379 1385 1386 1389 1395 1402
1417 1415 1417 1417 1417 1417 1416 1416 1415 1415 1415 1413 1412 1414 1413 1411 1410 1409 1408 1408 1405 1403 1401 1401 1399 1397 1393 1391 1389 1389 1390 1388 1388 1386 1386 1388 1388 1389 1390 1391 1392 1395 1400 1404
1419 1419 1419 1419 1418 1419 1418 1417 1417 1417 1417 1414 1414 1415 1415 1414 1415 1415 1415 1414 1411 1408 1406 1407 1405 1402 1398 1397 1397 1396 1395 1396 1394 1394 1394 1397 1401 1398 1396 1397 1398 1401 1404 1405
1421 1421 1421 1420 1420 1420 1420 1419 1420 1419 1419 1418 1418 1419 1418 1419 1421 1419 1418 1416 1413 1411 1411 1411 1407 1405 1403 1403 1404 1403 1401 1400 1400 1401 1402 1404 1403 1402 1403 1401 1402 1404 1406 1408
1424 1423 1422 1422 1422 1422 1420 1421 1423 1423 1423 1423 1423 1423 1423 1424 1424 1423 1421 1417 1417 1417 1416 1414 1412 1411 1409 1410 1409 1408 1407 1405 1405 1407 1408 1408 1407 1407 1406 1405 1407 1406 1407 1409
1427 1426 1425 1426 1426 1425 1426 1426 1427 1427 1428 1428 1428 1428 1428 1428 1427 1426 1425 1422 1421 1421 1419 1417 1416 1415 1414 1414 1412 1411 1410 1409 1412 1411 1412 1412 1411 1411 1409 1407 1408 1408 1408 1410
1430 1429 1430 1431 1430 1430 1431 1431 1432 1433 1433 1433 1433 1433 1433 1432 1431 1429 1427 1428 1426 1424 1423 1421 1419 1418 1418 1418 1416 1416 1415 1414 1415 1416 1415 1413 1414 1412 1411 1410 1409 1410 1410 1411
1434 1435 1436 1436 1436 1436 1437 1437 1437 1437 1436 1436 1436 1436 1434 1434 1433 1433 1431 1430 1428 1427 1425 1423 1422 1422 1420 1420 1422 1421 1419 1417 1416 1417 1413 1412 1414 1413 1411 1411 1410 1410 1411 1410
1440 1440 1441 1442 1442 1442 1442 1443 1442 1440 1439 1439 1438 1438 1439 1438 1437 1436 1434 1432 1431 1429 1428 1426 1425 1425 1424 1424 1422 1420 1418 1420 1419 1416 1416 1415 1414 1412 1412 1410 1410 1410 1410 1410
1444 1445 1446 1446 1446 1446 1445 1445 1445 1444 1444 1443 1442 1441 1440 1439 1439 1437 1436 1434 1433 1432 1430 1428 1427 1426 1424 1423 1422 1421 1420 1418 1416 1416 1416 1415 1414 1414 1413 1411 1410 1409 1408 1407
1447 1447 1447 1447 1448 1448 1448 1448 1448 1447 1446 1446 1444 1443 1442 1441 1440 1440 1437 1435 1433 1432 1430 1429 1427 1427 1426 1424 1423 1422 1421 1420 1419 1417 1416 1416 1414 1413 1411 1409 1408 1407 1406 1405
1449 1450 1450 1449 1448 1447 1447 1448 1448 1447 1446 1446 1445 1444 1443 1443 1440 1440 1438 1437 1435 1433 1432 1430 1429 1427 1426 1425 1424 1423 1422 1420 1418 1416 1415 1413 1412 1411 1409 1408 1407 1406 1404 1403